Regional Weather Roundup
Issued by NWS Sioux Falls, SD

Home | Current Version | Previous Version | Graphics & Text | Print | Product List | Glossary On
Versions: 1 2 3 4 5 6 7 8 9 10 11 12 13 14 15 16 17 18 19 20 21 22 23 24 25 26 27 28 29 30 31 32 33 34 35 36 37 38 39 40 41 42 43 44 45 46 47 48 49 50
000
ASUS43 KFSD 201010
RWRFSD

WEATHER ROUNDUP FOR SE SOUTH DAKOTA/SW MINNESOTA/NW IOWA
NATIONAL WEATHER SERVICE SIOUX FALLS SD
400 AM CST SAT JAN 20 2018

NOTE: "FAIR" INDICATES FEW OR NO CLOUDS BELOW 12,000 FEET WITH NO
SIGNIFICANT WEATHER AND OR OBSTRUCTIONS TO VISIBILITY.


SDZ038>040-050-052>070-201100-
SOUTHEAST SOUTH DAKOTA

CITY           SKY/WX    TMP DP  RH WIND       PRES   REMARKS
BROOKINGS      PTCLDY    27  25  92 N3        29.80
CHAMBERLAIN    CLEAR     29  29 100 CALM      29.80F
HURON          PTCLDY    27  26  96 S3        29.82S
MADISON        FAIR      30  30 100 NW5       29.81R WCI  25
MITCHELL       CLEAR     27  26  96 W5        29.83S WCI  22
SIOUX FALLS    CLOUDY    26  24  92 CALM      29.81R
WINNER         FAIR      32  29  88 SW5       29.81F WCI  27
YANKTON        CLOUDY    30  27  88 NW7       29.82R WCI  23
$$

MNZ071-072-080-081-089-090-097-098-201100-
SOUTHWEST MINNESOTA

CITY           SKY/WX    TMP DP  RH WIND       PRES   REMARKS
FAIRMONT       CLOUDY    32  28  85 NW6       29.80R WCI  26
JACKSON        PTCLDY    30  28  93 CALM      29.79S
LUVERNE        CLOUDY    28  27  93 N5        29.81R WCI  23
MARSHALL       PTCLDY    33  27  78 W8        29.81R WCI  26
MONTEVIDEO     MOCLDY    30  27  86 W3        29.79R
PIPESTONE      CLEAR     30  27  86 CALM      29.80R
REDWOOD FALLS  CLOUDY    31  28  89 W6        29.80R WCI  25
TRACY          PTCLDY    35  29  79 W5        29.80S
WINDOM         CLOUDY    34  18  51 CALM      29.80R
WORTHINGTON    CLOUDY    28  25  88 N9        29.80R WCI  19
$$

IAZ001>003-012>014-020>022-031-032-NEZ013-014-SDZ071-201100-
NORTHWEST IOWA

CITY           SKY/WX    TMP DP  RH WIND       PRES   REMARKS
CHEROKEE       CLOUDY    26  26 100 CALM      29.81R
DENISON        CLOUDY    25  25 100 CALM      29.81R
ESTHERVILLE    CLOUDY    29  28  96 NW7       29.78R WCI  22
LE MARS        CLOUDY    27  25  93 CALM      29.81S
ORANGE CITY    CLOUDY    30  30 100 N5        29.80R WCI  25
SHELDON        CLOUDY    27  27 100 NW3       29.78R
SIOUX CITY     CLOUDY    27  26  96 W3        29.81R
SPENCER        CLOUDY    25  23  92 CALM      29.79R
STORM LAKE     CLOUDY    32  30  93 CALM      29.80R
$$

ABBREVIATIONS USED IN REMARKS
   TC - TEMPERATURE IN CELSIUS
  WCI - WIND CHILL INDEX
   HX - HEAT INDEX
  VSB - VISIBILITY





USA.gov is the U.S. government's official web portal to all federal, state and local government web resources and services.